Weather History for Seldovia, AK

Change the Weather History Date:

Thursday, January 2, 2014

  Actual Average (PAHO) Record (PAHO)
Temperature  
Mean Temperature 32 °F -  
Max Temperature 39 °F 27 °F 47 °F (1942)
Min Temperature 28 °F 15 °F -10 °F (1975)
Degree Days  
Heating Degree Days 33    
Moisture  
Dew Point 29 °F    
Average Humidity 88    
Maximum Humidity 100    
Minimum Humidity 77    
Precipitation  
Precipitation 0.00 in - - ()
Sea Level Pressure  
Sea Level Pressure 29.87 in    
Wind  
Wind Speed 4 mph (South)    
Max Wind Speed 12 mph    
Max Gust Speed 17 mph    
Visibility 10 miles    
Events      
Averages and records for this station are not official NWS values.
T = Trace of Precipitation, MM = Missing Value Source: NWS Daily Summary

Daily Weather History Graph

Daily Weather History Graph

Search for Another Location

Airport:

Trip Planner

Search our weather history database for the weather conditions in past years. The results will help you decide how hot, cold, wet, or windy it might be!

Date:

Astronomy

Jan. 02, 2014 Rise Set
Actual Time 10:03 AM AKST 4:18 PM AKST
Civil Twilight 9:08 AM AKST 5:13 PM AKST
Nautical Twilight 8:13 AM AKST 6:08 PM AKST
Astronomical Twilight 7:23 AM AKST 6:58 PM AKST
Moon 10:16 AM AKST (1/2) 7:09 PM AKST (1/2)
Length of Visible Light 8h 05m
Length of Day
6h 15m
Waxing Crescent, 3% of the Moon is Illuminated
Jan 2
Waxing Crescent
Jan 7
First Quarter
Jan 15
Full
Jan 23
Last Quarter
Jan 30
New

Hourly Weather History & Observations

Time (AKST) Temp. Windchill Dew Point Humidity Pressure Visibility Wind Dir Wind Speed Gust Speed Precip Events Conditions
12:53 AM 33.1 °F 28.7 °F 30.9 °F 92% 29.58 in 10.0 mi Variable 4.6 mph - N/A   Overcast
1:53 AM 33.1 °F 27.7 °F 28.9 °F 85% 29.61 in 10.0 mi Variable 5.8 mph - N/A   Overcast
2:14 AM 33.8 °F 25.3 °F 28.4 °F 81% 29.62 in 10.0 mi South 11.5 mph 17.3 mph N/A   Overcast
3:53 AM 33.1 °F 28.7 °F 28.9 °F 85% 29.67 in 10.0 mi Variable 4.6 mph - N/A   Overcast
4:53 AM 33.1 °F 30.0 °F 30.0 °F 89% 29.70 in 10.0 mi Variable 3.5 mph - N/A   Overcast
5:53 AM 33.1 °F - 28.9 °F 85% 29.73 in 10.0 mi Calm Calm - N/A   Overcast
6:53 AM 33.1 °F 28.7 °F 28.0 °F 82% 29.75 in 10.0 mi Variable 4.6 mph - N/A   Overcast
7:53 AM 34.0 °F 29.8 °F 28.0 °F 79% 29.78 in 10.0 mi South 4.6 mph - N/A   Overcast
8:53 AM 33.1 °F 30.0 °F 28.0 °F 82% 29.80 in 10.0 mi South 3.5 mph - N/A   Mostly Cloudy
9:53 AM 33.1 °F 28.7 °F 28.9 °F 85% 29.83 in 10.0 mi Variable 4.6 mph - N/A   Overcast
10:53 AM 33.1 °F 28.7 °F 28.0 °F 82% 29.87 in 10.0 mi South 4.6 mph - N/A   Mostly Cloudy
11:28 AM 33.8 °F - 28.4 °F 81% 29.89 in 10.0 mi Calm Calm - N/A   Scattered Clouds
11:53 AM 33.1 °F 28.7 °F 28.9 °F 85% 29.90 in 10.0 mi South 4.6 mph - N/A   Scattered Clouds
12:53 PM 34.0 °F 28.8 °F 28.9 °F 82% 29.91 in 10.0 mi South 5.8 mph - N/A   Clear
1:53 PM 34.0 °F 27.2 °F 28.9 °F 82% 29.93 in 10.0 mi South 8.1 mph - N/A   Clear
2:53 PM 32.0 °F - 30.0 °F 92% 29.94 in 10.0 mi Calm Calm - N/A   Clear
3:53 PM 30.0 °F - 30.0 °F 100% 29.95 in 10.0 mi Calm Calm - N/A   Clear
4:53 PM 30.0 °F - 28.0 °F 92% 29.97 in 10.0 mi Calm Calm - N/A   Mostly Cloudy
5:53 PM 28.9 °F - 28.0 °F 96% 29.99 in 10.0 mi Calm Calm - N/A   Clear
6:53 PM 28.9 °F - 28.0 °F 96% 29.99 in 10.0 mi Calm Calm - N/A   Clear
7:45 PM 30.2 °F - 28.4 °F 93% 29.99 in 10.0 mi Calm Calm - N/A   Mostly Cloudy
7:53 PM 30.0 °F - 28.9 °F 96% 30.00 in 10.0 mi Calm Calm - N/A   Overcast
8:53 PM 32.0 °F - 30.9 °F 96% 30.01 in 10.0 mi Calm Calm - N/A   Overcast
9:53 PM 34.0 °F 28.8 °F 33.1 °F 96% 30.02 in 10.0 mi South 5.8 mph - N/A   Overcast
10:53 PM 36.0 °F 30.3 °F 34.0 °F 93% 30.03 in 10.0 mi SSW 6.9 mph - N/A   Mostly Cloudy
11:53 PM 39.9 °F 36.7 °F 33.1 °F 77% 30.04 in 10.0 mi Variable 4.6 mph - N/A   Overcast